Content
SEND FEEDBACK

Daily
Averages
Monthly
Summary
Canada

VANCOUVER, BRITISH COLUMBIA


Home > North America > Canada > British Columbia
Elevation: 7 feet     Latitude: 49 11N     Longitude: 123 10W

WEATHER
 
SELECT A DAY
Number of Records: 249,280;   Date Range: 5/15/97 - 7/27/14
 
SHARE

PRINT THIS DATA

[ ← Previous Day ]
WEATHER ALMANAC - MAY 17, 2013
[ Next Day → ]
[ °C ]   °F
Weather ElementAverageHighLow
Temperature54.1 °F57.2 °F (4:55 pm)50 °F (12:35 am)
Dewpoint50.8 °F53.6 °F (1:55 pm)48.2 °F (12:35 am)
Humidity89.1 %100 % (12:55 am)77 % (5:55 pm)
Barometer29.96 in30.03 in (11:35 pm)29.91 in (12:35 am)
Wind Speed6.9 mph12.7 mph (7:15 am)
Wind Gust17.3 mph (7:15 am)
Weather ElementAverage
Visibility9.3 mi
Wind DirectionSSE (167.7 °)

Weather ElementTotal
Precipitation0.03 in
Heating Degree Days11.4 (Base 65)
Growing Degree Days3.6 (Base 50)
Averaged from 70 records on May 17, 2013
WEATHER CONDITIONS BREAKOUT
WIND DIRECTION BREAKOUT
WEATHER BY HOUR - MAY 17, 2013
[ °C ]   °F
Local TimeTemperatureDewpointHumidityBarometerVisibilityWind DirectionWind SpeedGust SpeedPrecipitationEventsConditions
12:35 AM50.0 °F48.2 °F94 %29.91 in10.0 miCalmClear
12:55 AM50.0 °F50.0 °F100 %29.92 in10.0 miCalmClear
1:15 AM51.8 °F50.0 °F94 %29.92 in10.0 miCalmClear
1:35 AM51.8 °F50.0 °F94 %29.91 in10.0 miNorthClear
1:55 AM51.8 °F50.0 °F94 %29.91 in10.0 miSouth (170°)3.5 mphClear
2:15 AM51.8 °F50.0 °F94 %29.91 in10.0 miSouth (190°)5.8 mphClear
2:35 AM53.6 °F50.0 °F88 %29.91 in10.0 miCalmClear
2:55 AM51.8 °F50.0 °F94 %29.91 in10.0 miCalmClear
3:15 AM51.8 °F50.0 °F94 %29.91 in10.0 miSouth (170°)4.6 mphClear
3:35 AM51.8 °F50.0 °F94 %29.91 in10.0 miSouth (180°)4.6 mphClear
3:55 AM51.8 °F50.0 °F94 %29.91 in10.0 miSouth (190°)5.8 mphMostly Cloudy
4:15 AM51.8 °F50.0 °F94 %29.92 in10.0 miSouth (170°)5.8 mphOvercast
4:35 AM51.8 °F50.0 °F94 %29.91 in10.0 miSouth (190°)11.5 mphOvercast
4:55 AM51.8 °F50.0 °F94 %29.91 in10.0 miSouth (180°)8.1 mphMostly Cloudy
5:15 AM53.6 °F50.0 °F88 %29.91 in10.0 miSouth (180°)9.2 mphOvercast
5:35 AM51.8 °F50.0 °F94 %29.92 in10.0 miSouth (170°)5.8 mphMostly Cloudy
5:55 AM53.6 °F50.0 °F88 %29.92 in10.0 miSouth (180°)8.1 mphMostly Cloudy
6:15 AM53.6 °F50.0 °F88 %29.92 in10.0 miSouth (180°)8.1 mphMostly Cloudy
6:35 AM53.6 °F50.0 °F88 %29.92 in10.0 miSouth (180°)8.1 mphMostly Cloudy
6:55 AM53.6 °F50.0 °F88 %29.92 in10.0 miSouth (190°)8.1 mphMostly Cloudy
7:15 AM53.6 °F50.0 °F88 %29.92 in10.0 miSouth (190°)12.7 mph17.3 mphMostly Cloudy
7:35 AM53.6 °F50.0 °F88 %29.93 in10.0 miSouth (190°)10.4 mph16.1 mphMostly Cloudy
7:55 AM53.6 °F50.0 °F88 %29.93 in10.0 miSouth (180°)10.4 mph17.3 mphMostly Cloudy
8:15 AM53.6 °F50.0 °F88 %29.94 in10.0 miSouth (190°)12.7 mphMostly Cloudy
8:35 AM55.4 °F50.0 °F82 %29.94 in10.0 miSouth (190°)10.4 mphMostly Cloudy
8:55 AM55.4 °F51.8 °F88 %29.94 in10.0 miSSW (200°)10.4 mphScattered Clouds
9:15 AM55.4 °F50.0 °F82 %29.94 in10.0 miSouth (190°)11.5 mphPartly Cloudy
9:35 AM55.4 °F51.8 °F88 %29.94 in10.0 miSSW (200°)11.5 mphPartly Cloudy
9:55 AM55.4 °F51.8 °F88 %29.94 in10.0 miSouth (180°)5.8 mphScattered Clouds
10:15 AM55.4 °F51.8 °F88 %29.94 in10.0 miSouth (190°)10.4 mphScattered Clouds
10:35 AM55.4 °F51.8 °F88 %29.94 in9.0 miSouth (190°)10.4 mph16.1 mphMostly Cloudy
10:55 AM55.4 °F51.8 °F88 %29.95 in10.0 miSouth (190°)10.4 mphMostly Cloudy
11:15 AM53.6 °F50.0 °F88 %29.96 in8.0 miSouth (170°)8.1 mphRainLight Rain
11:35 AM53.6 °F51.8 °F94 %29.96 in5.0 miSouth (180°)6.9 mphRainLight Rain
12:15 PM53.6 °F51.8 °F94 %29.96 in3.0 miSouth (180°)8.1 mphRainRain
12:35 PM53.6 °F51.8 °F94 %29.97 in5.0 miSouth (180°)5.8 mph0.01 inRainLight Rain
12:55 PM53.6 °F51.8 °F94 %29.97 in4.0 miSouth (170°)6.9 mph0.02 inRainLight Rain
1:15 PM53.6 °F51.8 °F94 %29.97 in8.0 miSouth (180°)4.6 mphRainLight Rain
1:35 PM53.6 °F51.8 °F94 %29.97 in9.0 miSouth (170°)5.8 mphMostly Cloudy
1:55 PM53.6 °F53.6 °F100 %29.97 in10.0 miSouth (180°)6.9 mphScattered Clouds
2:15 PM55.4 °F53.6 °F94 %29.97 in10.0 miSouth (180°)6.9 mphMostly Cloudy
2:35 PM55.4 °F53.6 °F94 %29.97 in10.0 miSouth (170°)5.8 mphScattered Clouds
2:55 PM55.4 °F51.8 °F88 %29.98 in10.0 miSouth (180°)8.1 mphScattered Clouds
3:15 PM55.4 °F51.8 °F88 %29.98 in9.0 miSouth (190°)6.9 mphPartly Cloudy
3:35 PM55.4 °F51.8 °F88 %29.98 in10.0 miSouth (190°)8.1 mphScattered Clouds
3:55 PM55.4 °F51.8 °F88 %29.98 in8.0 miSouth (190°)6.9 mphRainLight Rain
4:15 PM55.4 °F53.6 °F94 %29.98 in9.0 miSouth (180°)5.8 mphMostly Cloudy
4:35 PM55.4 °F53.6 °F94 %29.97 in10.0 miSouth (190°)6.9 mphMostly Cloudy
4:55 PM57.2 °F53.6 °F88 %29.97 in10.0 miSSW (200°)8.1 mphMostly Cloudy
5:15 PM57.2 °F51.8 °F82 %29.98 in9.0 miSouth (180°)8.1 mphScattered Clouds
5:35 PM57.2 °F51.8 °F82 %29.98 in10.0 miSouth (180°)6.9 mphMostly Cloudy
5:55 PM57.2 °F50.0 °F77 %29.99 in10.0 miSSW (210°)9.2 mphMostly Cloudy
6:15 PM57.2 °F51.8 °F82 %29.99 in3.0 miSouth (170°)4.6 mphRainLight Rain
6:35 PM55.4 °F53.6 °F94 %29.98 in10.0 miSouth (180°)5.8 mphOvercast
6:55 PM55.4 °F51.8 °F88 %29.99 in10.0 miSouth (170°)4.6 mphMostly Cloudy
7:15 PM57.2 °F50.0 °F77 %29.99 in10.0 miSSW (200°)8.1 mphMostly Cloudy
7:35 PM55.4 °F50.0 °F82 %29.98 in10.0 miSouth (190°)6.9 mphScattered Clouds
7:55 PM55.4 °F50.0 °F82 %29.99 in9.0 miSouth (180°)5.8 mphScattered Clouds
8:15 PM55.4 °F50.0 °F82 %29.99 in10.0 miSouth (180°)4.6 mphScattered Clouds
8:35 PM55.4 °F50.0 °F82 %29.99 in10.0 miSouth (170°)3.5 mphMostly Cloudy
8:55 PM55.4 °F50.0 °F82 %30.00 in10.0 miSouth (180°)3.5 mphMostly Cloudy
9:15 PM55.4 °F50.0 °F82 %30.00 in10.0 miSouth (170°)3.5 mphOvercast
9:35 PM55.4 °F50.0 °F82 %30.01 in10.0 miSouth (180°)4.6 mphOvercast
9:55 PM53.6 °F50.0 °F88 %30.01 in10.0 miSouth (180°)4.6 mphMostly Cloudy
10:15 PM53.6 °F50.0 °F88 %30.02 in9.0 miSouth (190°)6.9 mphRainLight Rain
10:35 PM53.6 °F50.0 °F88 %30.02 in10.0 miSouth (190°)8.1 mphPartly Cloudy
10:55 PM53.6 °F50.0 °F88 %30.02 in10.0 miSouth (190°)8.1 mphMostly Cloudy
11:15 PM53.6 °F50.0 °F88 %30.02 in10.0 miSouth (190°)8.1 mphMostly Cloudy
11:35 PM53.6 °F50.0 °F88 %30.03 in10.0 miSouth (190°)9.2 mphRainLight Rain
11:55 PM51.8 °F50.0 °F94 %30.03 in7.0 miSouth (190°)8.1 mphRainLight Rain
Hourly data recorded from CZBB, located miles away from Vancouver, British Columbia







STORIES FROM OUR PARTNERS